Regional Weather Roundup
Issued by NWS Albany, NY

Home | Current Version | Previous Version | Text Only | Print | Product List | Glossary On
Versions: 1 2 3 4 5 6 7 8 9 10 11 12 13 14 15 16 17 18 19 20 21 22 23 24 25 26 27 28 29 30 31 32 33 34 35 36 37 38 39 40 41 42 43 44 45 46 47 48 49 50
745
ASUS41 KALY 270610
RWRALY

NEW YORK STATE HOURLY WEATHER ROUNDUP
NATIONAL WEATHER SERVICE ALBANY NY
200 AM EDT THU APR 27 2017

NOTE: "FAIR" INDICATES FEW OR NO CLOUDS BELOW 12,000 FEET WITH NO
SIGNIFICANT WEATHER AND/OR NO OBSTRUCTIONS TO VISIBILITY.

NYZ032-033-038>043-046>054-057>066-NYZ062>081-082-084-270700-
EAST


CITY           SKY/WX    TMP DP  RH WIND       PRES   REMARKS
ALBANY         MOCLDY    57  52  83 S3        29.83F
GLENS FALLS    CLOUDY    59  53  80 NW5       29.83S
POUGHKEEPSIE   CLOUDY    58  56  93 CALM      29.83F FOG
NEWBURGH       CLOUDY    57  57 100 CALM      29.86S FOG
MONTGOMERY     CLOUDY    58  56  93 CALM      29.84S FOG
WHITE PLAINS   MOCLDY    57  55  93 CALM      29.84S FOG
ISLIP          CLOUDY    55  55 100 W7        29.84S
NEW YORK CITY  DRZL/FOG  58  57  97 CALM      29.84F VSB 1/2
CENTRAL PARK   CLOUDY    58  58 100 CALM      29.87S FOG
$$

NYZ005>009-017-018-044>046-055-056-270700-
CENTRAL


CITY           SKY/WX    TMP DP  RH WIND       PRES   REMARKS
FULTON         CLOUDY    61  55  81 CALM      29.75R
SYRACUSE       PTCLDY    58  55  90 NE7       29.76R
ROME           CLEAR     58  55  90 E6        29.80R
ELMIRA         CLEAR     55  51  86 CALM      29.77R
BINGHAMTON     CLEAR     55  53  93 SE7       29.81S
MONTICELLO     CLOUDY    55  55 100 CALM      29.87S
$$

NYZ026>034-041>043-087-270700-
NORTH


CITY           SKY/WX    TMP DP  RH WIND       PRES   REMARKS
WATERTOWN      PTCLDY    52  51  97 CALM      29.74S
FORT DRUM      NOT AVBL
MASSENA        FOG       54  54 100 NE6       29.81S VSB 1/2
SARANAC LAKE   FOG       43  43 100 CALM      29.81F VSB 1/4
PLATTSBURGH    CLEAR     51  49  92 CALM      29.81F
$$

NYZ001>004-010>016-019>021-085-270700-
WEST


CITY           SKY/WX    TMP DP  RH WIND       PRES   REMARKS
NIAGARA FALLS  CLEAR     53  48  83 CALM      29.68S
BUFFALO        CLEAR     60  55  83 SE6       29.69F
DUNKIRK        CLEAR     55  53  93 CALM      29.67F
JAMESTOWN      CLEAR     63  52  67 S8        29.73F
WELLSVILLE     CLEAR     62  54  74 S8        29.79S
ROCHESTER      CLEAR     60  55  83 S3        29.71F
PENN YAN       CLEAR     58  51  78 CALM      29.76R
$$

             KEY
       WCI = WIND CHILL INDEX
       VSB = VISIBILITY
       HX  = HEAT INDEX
$$




USA.gov is the U.S. government's official web portal to all federal, state and local government web resources and services.